Content
SEND FEEDBACK

Daily
Averages
Monthly
Summary
Thailand

PHUKET, THAILAND


Home > Asia > Thailand
Elevation: 33 feet     Latitude: 08 07N     Longitude: 098 19E

WEATHER
 
SELECT A DAY
Number of Records: 227,772;   Date Range: 7/1/96 - 8/28/14
 
SHARE

PRINT THIS DATA

[ ← Previous Day ]
WEATHER ALMANAC - NOVEMBER 29, 2013
[ Next Day → ]
[ °C ]   °F
Weather ElementAverageHighLow
Temperature78.7 °F86 °F (11:00 am) (2:00 am)
Dewpoint73.8 °F76 °F (1:00 pm)71.6 °F (10:30 pm)
Humidity80.6 %95 % (7:00 am)65 % (1:00 pm)
Barometer29.84 in29.89 in (12:30 am)29.77 in (2:30 pm)
Wind Speed5.4 mph11.5 mph (10:30 am)
Weather ElementAverage
Visibility5.3 mi
Wind DirectionENE (57.7 °)

Weather ElementTotal
Precipitation---
Heating Degree Days22 (Base 65)
Averaged from 52 records on November 29, 2013
WEATHER CONDITIONS BREAKOUT
WIND DIRECTION BREAKOUT
WEATHER BY HOUR - NOVEMBER 29, 2013
[ °C ]   °F
Local TimeTemperatureDewpointHumidityBarometerVisibilityWind DirectionWind SpeedGust SpeedPrecipitationEventsConditions
12:30 AM77.0 °F73.4 °F89 %29.89 in5.0 miVariable2.3 mphMostly Cloudy
1:00 AM78.0 °F75.0 °F88 %29.87 in6.0 miCalmScattered Clouds
1:00 AM78.8 °F73.4 °F83 %29.89 in5.0 miNE (50°)3.5 mphMostly Cloudy
1:30 AM78.8 °F73.4 °F83 %29.89 in5.0 miVariable1.2 mphMostly Cloudy
2:00 AM0.0 °F73.4 °F29.86 in5.0 miCalmMostly Cloudy
2:30 AM77.0 °F73.4 °F89 %29.83 in5.6 miVariable2.3 mphMostly Cloudy
3:00 AM77.0 °F73.4 °F89 %29.83 in5.6 miVariable2.3 mphMostly Cloudy
3:30 AM78.8 °F73.4 °F83 %29.83 in5.6 miEast (80°)4.6 mphMostly Cloudy
4:00 AM77.0 °F75.0 °F91 %29.80 in6.0 miCalmScattered Clouds
4:00 AM78.8 °F73.4 °F83 %29.83 in5.6 miEast (80°)3.5 mphMostly Cloudy
4:30 AM77.0 °F73.4 °F89 %29.83 in5.6 miVariable2.3 mphMostly Cloudy
5:00 AM78.8 °F73.4 °F83 %29.83 in5.0 miENE (60°)5.8 mphMostly Cloudy
5:30 AM78.8 °F73.4 °F83 %29.86 in5.0 miENE (60°)4.6 mphMostly Cloudy
7:00 AM78.8 °F73.4 °F83 %29.86 in5.6 miVariable3.5 mphMostly Cloudy
7:00 AM76.0 °F75.0 °F95 %29.83 in6.0 miCalmScattered Clouds
7:30 AM78.8 °F73.4 °F83 %29.89 in5.6 miNE (50°)5.8 mphMostly Cloudy
8:00 AM80.6 °F73.4 °F79 %29.89 in5.6 miNNE (30°)3.5 mphMostly Cloudy
8:30 AM82.4 °F73.4 °F74 %29.89 in6.2 miENE (70°)8.1 mphMostly Cloudy
9:00 AM84.2 °F73.4 °F70 %29.86 in6.2 miEast (80°)8.1 mphMostly Cloudy
9:30 AM84.2 °F73.4 °F70 %29.86 in6.2 miEast (90°)8.1 mphMostly Cloudy
10:00 AM84.2 °F73.4 °F70 %29.89 in6.2 miENE (70°)9.2 mphMostly Cloudy
10:00 AM84.0 °F74.0 °F66 %29.86 in6.0 miEast (80°)4.6 mphScattered Clouds
10:30 AM84.2 °F73.4 °F70 %29.89 in6.2 miENE (60°)11.5 mphMostly Cloudy
11:00 AM86.0 °F73.4 °F66 %29.89 in6.2 miEast (90°)10.4 mphMostly Cloudy
11:30 AM86.0 °F73.4 °F66 %29.86 in6.2 miEast (80°)10.4 mphMostly Cloudy
12:00 PM86.0 °F73.4 °F66 %29.83 in6.2 miEast (90°)11.5 mphMostly Cloudy
12:30 PM86.0 °F73.4 °F66 %29.83 in6.2 miEast (80°)11.5 mphMostly Cloudy
1:00 PM86.0 °F76.0 °F65 %29.80 in4.0 miSE (140°)4.6 mphPartly Cloudy
1:00 PM84.2 °F73.4 °F70 %29.80 in5.0 miESE (110°)10.4 mphMostly Cloudy
1:30 PM80.6 °F75.2 °F84 %29.80 in4.3 miEast (90°)9.2 mphRainLight Rain
2:00 PM82.4 °F75.2 °F79 %29.80 in5.0 miENE (60°)9.2 mphMostly Cloudy
2:30 PM80.6 °F75.2 °F84 %29.77 in5.6 miENE (60°)10.4 mphMostly Cloudy
3:00 PM82.4 °F73.4 °F74 %29.77 in6.2 miENE (60°)9.2 mphMostly Cloudy
3:30 PM82.4 °F73.4 °F74 %29.77 in5.0 miENE (70°)8.1 mphMostly Cloudy
4:00 PM81.0 °F76.0 °F82 %29.77 in3.0 miNE (40°)4.6 mphRainLight Rain
4:00 PM80.6 °F73.4 °F79 %29.77 in4.3 miENE (60°)5.8 mphRainRain
4:30 PM78.8 °F75.2 °F89 %29.77 in4.3 miENE (70°)5.8 mphRainRain
5:00 PM78.8 °F75.2 °F89 %29.80 in4.3 miENE (60°)5.8 mphMostly Cloudy
5:30 PM78.8 °F75.2 °F89 %29.80 in5.0 miNE (40°)5.8 mphMostly Cloudy
6:00 PM78.8 °F75.2 °F89 %29.80 in5.6 miNE (50°)4.6 mphMostly Cloudy
6:30 PM78.8 °F73.4 °F83 %29.80 in6.2 miENE (60°)5.8 mphMostly Cloudy
7:00 PM78.0 °F75.0 °F89 %29.80 in4.0 miCalmRainLight Drizzle
7:00 PM77.0 °F73.4 °F89 %29.83 in5.6 miENE (70°)4.6 mphMostly Cloudy
7:30 PM78.8 °F73.4 °F83 %29.83 in5.0 miENE (60°)8.1 mphRainLight Rain
8:00 PM78.8 °F73.4 °F83 %29.83 in5.0 miNE (50°)5.8 mphMostly Cloudy
8:30 PM78.8 °F73.4 °F83 %29.86 in5.0 miNE (50°)3.5 mphMostly Cloudy
9:00 PM78.8 °F73.4 °F83 %29.86 in5.0 miENE (60°)3.5 mphMostly Cloudy
9:30 PM78.8 °F73.4 °F83 %29.86 in5.0 miENE (60°)3.5 mphMostly Cloudy
10:00 PM78.8 °F73.4 °F83 %29.89 in5.0 miENE (70°)3.5 mphMostly Cloudy
10:30 PM77.0 °F71.6 °F83 %29.89 in5.0 miENE (60°)4.6 mphMostly Cloudy
11:00 PM77.0 °F73.4 °F89 %29.89 in5.0 miNE (50°)3.5 mphMostly Cloudy
11:30 PM78.8 °F71.6 °F78 %29.86 in5.0 miENE (70°)3.5 mphMostly Cloudy
Hourly data recorded from VTSP, located miles away from Phuket, Thailand







STORIES FROM OUR PARTNERS